Regional Weather Roundup
Issued by NWS

Home | Current Version | Previous Version | Text Only | Print | Product List | Glossary Off
Versions: 1 2 3 4 5 6 7 8 9 10 11 12 13 14 15 16 17 18 19 20 21 22 23 24 25 26 27 28 29 30 31 32 33 34 35 36 37 38 39 40 41 42 43 44 45 46 47 48 49 50

000
ASUS43 KLMK 061102
RWRKY
KENTUCKY REGIONAL WEATHER ROUNDUP
NATIONAL WEATHER SERVICE LOUISVILLE KY
600 AM EST TUE DEC 06 2016

NOTE "FAIR" INDICATES FEW OR NO CLOUDS BELOW 12,000 FEET
WITH NO SIGNIFICANT WEATHER AND/OR OBSTRUCTIONS TO VISIBILITY.

KYZ001>023-026-027-061>063-070>075-061200-
WESTERN AND SOUTH CENTRAL KENTUCKY

CITY           SKY/WX    TMP DP  RH WIND       PRES   REMARKS
PADUCAH        HVY RAIN  42  39  89 N8        29.66S FOG
HENDERSON      CLOUDY    43  37  81 N6        29.67S
OWENSBORO      LGT RAIN  43  42  97 NE7       29.65F FOG
HOPKINSVILLE   CLOUDY    46  46 100 N6        29.59F
BOWLING GREEN  LGT RAIN  47  46  97 NE6       29.59F
GLASGOW        NOT AVBL
$$

KYZ024-025-028>034-038-045-046-053-061200-
NORTH CENTRAL KENTUCKY

CITY           SKY/WX    TMP DP  RH WIND       PRES   REMARKS
LOUISVILLE/SDF LGT RAIN  42  39  89 NE6       29.69F FOG
LOUISVILLE/LOU LGT RAIN  42  39  89 NE5       29.71F FOG
FORT KNOX      LGT RAIN  42  41  99 NE9       29.64F FOG
$$

KYZ035>037-039>044-047>052-055>060-089>105-061200-
NORTHEAST KENTUCKY

CITY           SKY/WX    TMP DP  RH WIND       PRES   REMARKS
LEXINGTON      RAIN      42  40  92 NE8       29.70F FOG
COVINGTON      RAIN      39  36  89 NE9       29.74F FOG     WCI  33
FRANKFORT      LGT RAIN  41  39  93 NE5       29.71S FOG
$$

KYZ054-064>069-076>088-106>120-061200-
SOUTHEAST KENTUCKY

CITY           SKY/WX    TMP DP  RH WIND       PRES   REMARKS
JACKSON        LGT RAIN  45  43  93 VRB7      29.70F
LONDON         LGT RAIN  47  44  90 SE6       29.70F
SOMERSET       RAIN      46  46 100 CALM      29.68F
MIDDLESBORO    RAIN      50  49  96 S3        29.77R
MONTICELLO     RAIN      53  51  93 E7        29.68F
$$





USA.gov is the U.S. government's official web portal to all federal, state and local government web resources and services.